Chanute, KS

10:55 AM CST on December 16, 2017 (GMT -0600)
Chanute Martin Johnson

Weather History for KCNU - April, 2013

Change the Weather History Date:

Thursday, April 18, 2013

  Actual Average Record
Temperature  
Mean Temperature 43 °F 58 °F  
Max Temperature 50 °F 69 °F 90 °F (2006)
Min Temperature 36 °F 47 °F 27 °F (1953)
Degree Days  
Heating Degree Days 22 8  
Month to date heating degree days 247 193  
Since 1 July heating degree days 4045 4324  
Cooling Degree Days 0 1  
Month to date cooling degree days 3 14  
Year to date cooling degree days 4 18  
Moisture  
Dew Point 38 °F    
Average Humidity 77    
Maximum Humidity 92    
Minimum Humidity 62    
Precipitation  
Precipitation 0.36 in 0.15 in 2.91 in (1970)
Month to date precipitation 1.55 2.43  
Year to date precipitation 8.46 8.63  
Sea Level Pressure  
Sea Level Pressure 29.75 in    
Wind  
Wind Speed 17 mph (NNW)    
Max Wind Speed 26 mph    
Max Gust Speed 38 mph    
Visibility 8 miles    
Events Rain , Thunderstorm    
T = Trace of Precipitation, MM = Missing Value Source: NWS Daily Summary

Daily Weather History Graph

Daily Weather History Graph

Search for Another Location

Airport or City:

Trip Planner

Search our weather history database for the weather conditions in past years. The results will help you decide how hot, cold, wet, or windy it might be!

Date:

Astronomy

Apr. 18, 2013 Rise Set
Actual Time 6:42 AM CDT 8:00 PM CDT
Civil Twilight 6:15 AM CDT 8:27 PM CDT
Nautical Twilight 5:42 AM CDT 9:00 PM CDT
Astronomical Twilight 5:08 AM CDT 9:34 PM CDT
Moon 12:56 PM CDT (4/18) 2:14 AM CDT (4/18)
Length of Visible Light 14h 12m
Length of Day
13h 18m
First Quarter, 52% of the Moon is Illuminated
Apr 18
First Quarter
Apr 25
Full
May 2
Last Quarter
May 9
New
May 17
First Quarter

Hourly Weather History & Observations

Time (CDT) Temp. Windchill Dew Point Humidity Pressure Visibility Wind Dir Wind Speed Gust Speed Precip Events Conditions
12:02 AM 50.0 °F - 48.2 °F 94% 29.65 in 5.0 mi ENE 15.0 mph - 0.03 in Rain , Thunderstorm Thunderstorms and Rain
12:25 AM 50.0 °F - 48.2 °F 94% 29.61 in 10.0 mi ENE 16.1 mph - 0.04 in Rain Light Rain
12:52 AM 50.0 °F - 48.9 °F 96% 29.60 in 10.0 mi North 4.6 mph - 0.04 in Rain Light Rain
1:06 AM 50.0 °F - 48.2 °F 94% 29.64 in 10.0 mi NW 12.7 mph 17.3 mph 0.00 in   Mostly Cloudy
1:13 AM 48.2 °F - 48.2 °F 100% 29.62 in 10.0 mi NNE 8.1 mph 17.3 mph 0.00 in   Mostly Cloudy
1:52 AM 46.9 °F - 45.0 °F 93% 29.63 in 8.0 mi North 10.4 mph 26.5 mph 0.01 in Rain Light Rain
2:02 AM 46.4 °F 40.1 °F 44.6 °F 93% 29.59 in 9.0 mi NE 15.0 mph 23.0 mph 0.01 in Rain Light Rain
2:11 AM 46.4 °F 38.5 °F 44.6 °F 93% 29.56 in 6.0 mi NE 21.9 mph 38.0 mph 0.02 in Rain Light Rain
2:38 AM 46.4 °F 40.4 °F 46.4 °F 100% 29.56 in 10.0 mi ENE 13.8 mph 21.9 mph 0.02 in   Overcast
2:52 AM 46.9 °F - 46.0 °F 97% 29.56 in 10.0 mi ENE 9.2 mph - 0.02 in Rain Light Rain
3:52 AM 46.0 °F 39.9 °F 44.1 °F 93% 29.56 in 10.0 mi North 13.8 mph 20.7 mph 0.00 in   Overcast
4:12 AM 46.4 °F 40.4 °F 42.8 °F 87% 29.58 in 10.0 mi North 13.8 mph 21.9 mph N/A Rain , Thunderstorm Light Rain
4:44 AM 44.6 °F 38.1 °F 42.8 °F 93% 29.59 in 3.0 mi NNW 13.8 mph 23.0 mph 0.02 in Rain Rain
4:52 AM 44.1 °F 37.1 °F 42.1 °F 93% 29.58 in 4.0 mi NNW 15.0 mph - 0.02 in Rain Light Rain
5:19 AM 42.8 °F 34.5 °F 41.0 °F 93% 29.64 in 2.5 mi NW 18.4 mph 28.8 mph 0.09 in Rain , Thunderstorm Heavy Thunderstorms and Rain
5:28 AM 42.8 °F 35.4 °F 41.0 °F 93% 29.66 in 1.5 mi NW 15.0 mph 26.5 mph 0.27 in Rain , Thunderstorm Heavy Rain
5:36 AM 42.8 °F 34.3 °F 41.0 °F 93% 29.66 in 3.0 mi NW 19.6 mph 28.8 mph 0.28 in Rain , Thunderstorm Light Rain
5:44 AM 42.8 °F 35.1 °F 41.0 °F 93% 29.67 in 5.0 mi NW 16.1 mph 28.8 mph 0.28 in Rain Light Rain
5:52 AM 42.1 °F 33.9 °F 39.9 °F 92% 29.67 in 6.0 mi NW 17.3 mph - 0.28 in Rain Light Rain
6:52 AM 39.9 °F 30.5 °F 37.9 °F 93% 29.67 in 10.0 mi NNW 19.6 mph 26.5 mph 0.03 in   Overcast
7:30 AM 39.2 °F 30.2 °F 37.4 °F 93% 29.71 in 10.0 mi NW 17.3 mph 26.5 mph N/A   Overcast
7:52 AM 39.9 °F 30.2 °F 37.0 °F 89% 29.73 in 7.0 mi NW 20.7 mph 26.5 mph N/A   Overcast
8:34 AM 39.2 °F 30.2 °F 37.4 °F 93% 29.75 in 2.5 mi NW 17.3 mph 27.6 mph 0.00 in Rain Light Rain
8:40 AM 39.2 °F 29.6 °F 35.6 °F 87% 29.76 in 3.0 mi NW 19.6 mph 31.1 mph 0.00 in Rain Light Rain
8:52 AM 39.0 °F 29.0 °F 36.0 °F 89% 29.76 in 6.0 mi NW 20.7 mph 29.9 mph 0.00 in   Overcast
9:23 AM 37.4 °F 26.6 °F 35.6 °F 93% 29.78 in 10.0 mi NW 21.9 mph 28.8 mph N/A   Overcast
9:47 AM 39.2 °F 29.3 °F 33.8 °F 81% 29.81 in 10.0 mi NW 20.7 mph 28.8 mph N/A   Overcast
9:52 AM 39.0 °F 29.0 °F 34.0 °F 82% 29.81 in 10.0 mi NW 20.7 mph 28.8 mph N/A   Overcast
10:52 AM 37.9 °F 27.3 °F 33.1 °F 83% 29.85 in 10.0 mi NW 21.9 mph 29.9 mph N/A   Overcast
11:52 AM 37.9 °F 27.1 °F 32.0 °F 79% 29.87 in 10.0 mi WNW 23.0 mph 27.6 mph N/A   Overcast
12:52 PM 39.0 °F 30.3 °F 32.0 °F 76% 29.86 in 10.0 mi WNW 16.1 mph 27.6 mph N/A   Overcast
1:52 PM 39.9 °F 29.7 °F 32.0 °F 73% 29.87 in 10.0 mi NW 23.0 mph 27.6 mph N/A   Overcast
2:52 PM 41.0 °F 32.2 °F 30.9 °F 67% 29.90 in 10.0 mi NW 18.4 mph 28.8 mph N/A   Overcast
3:52 PM 42.1 °F - 32.0 °F 67% 29.90 in 10.0 mi North - - N/A   Overcast
4:52 PM 43.0 °F 35.1 °F 30.9 °F 62% 29.92 in 10.0 mi WNW 17.3 mph 29.9 mph N/A   Overcast
5:52 PM 41.0 °F 31.4 °F 30.0 °F 65% 29.95 in 10.0 mi NW 21.9 mph 28.8 mph N/A   Overcast
6:52 PM 39.9 °F 30.5 °F 28.9 °F 65% 29.97 in 10.0 mi NW 19.6 mph 31.1 mph N/A   Overcast
7:52 PM 39.0 °F 29.9 °F 28.9 °F 67% 29.99 in 10.0 mi NW 17.3 mph - N/A   Overcast
8:52 PM 37.9 °F 30.0 °F 28.0 °F 68% 30.01 in 10.0 mi NW 12.7 mph 20.7 mph N/A   Overcast
9:52 PM 37.0 °F 28.9 °F 26.1 °F 65% 30.04 in 10.0 mi WNW 12.7 mph - N/A   Overcast
10:52 PM 37.0 °F 29.8 °F 28.0 °F 70% 30.03 in 10.0 mi WNW 10.4 mph - N/A   Overcast
11:52 PM 37.0 °F 28.9 °F 28.0 °F 70% 30.02 in 10.0 mi WNW 12.7 mph - N/A   Overcast